Location: Muenchen
(48.1800°N, 11.5800°E)
Time: 12:28:35
(UTC+02:00)

ISS - Visible Passes

Search period start: 05 August 2015 00:00
Search period end: 15 August 2015 00:00
Orbit: 401 x 403 km, 51.6° (Epoch: 04 August)

Date Brightness Start Highest point End Pass type
(mag) Time Alt. Az. Time Alt. Az. Time Alt. Az.
05 Aug -2.2 00:09:52 10° WNW 00:12:45 43° N 00:12:45 43° N visible
05 Aug -3.2 21:39:55 10° WSW 21:43:11 76° NNW 21:46:27 10° ENE visible
05 Aug -2.2 23:16:44 10° WNW 23:19:52 43° N 23:21:27 24° ENE visible
06 Aug -0.7 00:53:17 10° WNW 00:54:01 16° WNW 00:54:01 16° WNW visible
06 Aug -2.3 22:23:32 10° W 22:26:42 45° N 22:29:52 10° ENE visible
07 Aug -2.1 00:00:14 10° WNW 00:02:42 42° NW 00:02:42 42° NW visible
07 Aug -2.5 21:30:20 10° W 21:33:32 53° NNW 21:36:45 10° ENE visible
07 Aug -2.4 23:07:08 10° WNW 23:10:18 46° N 23:11:21 32° ENE visible
08 Aug -0.4 00:43:36 10° WNW 00:43:56 12° WNW 00:43:56 12° WNW visible
08 Aug -2.2 22:13:58 10° WNW 22:17:06 43° N 22:20:01 12° ENE visible
08 Aug -2.0 23:50:30 10° WNW 23:52:35 36° WNW 23:52:35 36° WNW visible
09 Aug -2.2 21:20:45 10° W 21:23:54 44° N 21:27:03 10° ENE visible
09 Aug -2.9 22:57:24 10° WNW 23:00:38 59° NNE 23:01:14 48° ENE visible
10 Aug -2.5 22:04:16 10° WNW 22:07:27 48° N 22:09:54 15° E visible
10 Aug -1.6 23:40:44 10° WNW 23:42:29 28° W 23:42:29 28° W visible
11 Aug -2.3 21:11:05 10° WNW 21:14:13 43° N 21:17:22 10° ENE visible
11 Aug -3.5 22:47:35 10° WNW 22:50:52 90° NNE 22:51:09 73° ESE visible
12 Aug -3.1 21:54:27 10° WNW 21:57:42 64° NNE 21:59:50 20° E visible
12 Aug -1.2 23:31:03 10° W 23:32:24 20° W 23:32:24 20° W visible
13 Aug -3.1 22:37:47 10° WNW 22:40:58 52° SSW 22:41:06 51° SSW visible
14 Aug -3.4 21:44:35 10° WNW 21:47:51 82° SSW 21:49:49 22° ESE visible
14 Aug -0.7 23:21:41 10° W 23:22:24 13° WSW 23:22:24 13° WSW visible
